Location: Innerarity Island Observatory
(30.3139°N, 87.4867°W)
Time: 00:19:37
(UTC-05:00)

Amateur Radio Satellites - All Passes

Search period start: 18 April 2014 23:49
Search period end: 19 April 2014 23:49
Location: Innerarity Island Observatory, 30.3139°N, 87.4867°W

Satellite Date Start Highest point End Downlink Frequencies (MHz)
Time Altitude Azimuth
Sapphire 18 Apr 23:49:51 23:54:29 30° 107° (ESE) 23:59:07 437.095 MHz 1200 baud AX-25 AFSK
FUNcube-1 18 Apr 23:50:27 23:52:46 14° 265° (W) 23:55:04 145.950 - 145.970 MHz USB
SO-50 18 Apr 23:58:56 00:01:14 13° 51° (NE) 00:03:32 436.795 FM
PCSat 19 Apr 00:33:53 00:39:16 89° 114° (ESE) 00:44:43 145.825 MHz
KITSAT 1 19 Apr 01:07:56 01:11:46 14° 101° (E) 01:15:35 435.175 FM
Oscar 10/S400 19 Apr 01:21:27 01:37:52 30° 139° (SE) 02:05:42 145.825 - 145.975 CW/USB, Beacon 145.810 USB
Sapphire 19 Apr 01:33:11 01:37:47 28° 301° (WNW) 01:42:25 437.095 MHz 1200 baud AX-25 AFSK
SO-50 19 Apr 01:37:31 01:42:06 57° 245° (WSW) 01:46:45 436.795 FM
AO-27 19 Apr 01:44:07 01:46:35 13° 94° (E) 01:49:03 436.795 MHz FM
ITAMSAT 1 19 Apr 01:54:10 01:57:33 17° 95° (E) 02:00:55 435.822 SSB
Oscar 19 19 Apr 01:59:09 02:04:05 42° 99° (E) 02:08:58 437.125 CW, 437.150 USB
Oscar 16 19 Apr 02:07:10 02:12:17 56° 101° (E) 02:17:22 437.025 USB, Beacon 2401.1428
AO-Echo 19 Apr 02:07:33 02:10:38 17° 95° (E) 02:13:41 ?
OPAL 19 Apr 02:13:25 02:17:57 36° 70° (ENE) 02:22:32 ?
PCSat 19 Apr 02:22:28 02:23:22 10° 310° (NW) 02:24:15 145.825 MHz
AO-40 19 Apr 02:23:11 08:57:43 48° 181° (S) 14:47:43 Beacon 2401.320
UOSAT-12 19 Apr 02:24:43 02:28:20 21° 54° (NE) 02:31:54 437.025 FM, 437.400 FM
Uribyol 2 19 Apr 02:41:16 02:46:24 62° 101° (ESE) 02:51:31 436.500 FM
KITSAT 1 19 Apr 02:58:00 03:06:07 86° 295° (WNW) 03:14:17 435.175 FM
Gurwin Techsat 1B 19 Apr 03:10:44 03:15:26 32° 98° (E) 03:20:07 435.225 FM
AO-27 19 Apr 03:21:18 03:26:18 52° 286° (WNW) 03:31:19 436.795 MHz FM
ITAMSAT 1 19 Apr 03:32:18 03:37:08 41° 288° (WNW) 03:41:56 435.822 SSB
JAS-1B 19 Apr 03:39:30 03:43:28 19° 97° (E) 03:47:36 435.800 - 435.900 CW/SSB
Oscar 19 19 Apr 03:39:37 03:43:02 18° 292° (WNW) 03:46:26 437.125 CW, 437.150 USB
AO-Echo 19 Apr 03:45:12 03:49:28 34° 288° (WNW) 03:53:40 ?
Oscar 16 19 Apr 03:48:36 03:51:05 14° 294° (WNW) 03:53:35 437.025 USB, Beacon 2401.1428
OPAL 19 Apr 03:53:20 03:56:51 19° 263° (W) 04:00:26 ?
TMSAT-1 19 Apr 03:58:49 04:04:07 71° 102° (ESE) 04:09:22 436.925 FM
Uosat F 19 Apr 04:03:21 04:07:22 24° 97° (E) 04:11:22 435.120 FM
UOSAT-12 19 Apr 04:04:17 04:08:30 33° 248° (WSW) 04:12:39 437.025 FM, 437.400 FM
Uribyol 2 19 Apr 04:23:15 04:25:17 12° 295° (WNW) 04:27:19 436.500 FM
Gurwin Techsat 1B 19 Apr 04:51:01 04:55:11 24° 291° (WNW) 04:59:20 435.225 FM
AO-7 19 Apr 04:55:36 05:03:40 53° 103° (ESE) 05:11:43 29.400 - 29.500 MHz
KITSAT 1 19 Apr 04:57:47 05:02:36 17° 314° (NW) 05:07:26 435.175 FM
RS-15 19 Apr 05:06:47 05:14:39 22° 103° (ESE) 05:22:17 29.354 - 29.394 USB, Beacon 29.352 USB
JAS-1B 19 Apr 05:28:58 05:34:13 40° 288° (WNW) 05:39:47 435.800 - 435.900 CW/SSB
Uosat F 19 Apr 05:41:50 05:46:03 28° 290° (WNW) 05:50:15 435.120 FM
TMSAT-1 19 Apr 05:42:01 05:43:21 11° 295° (WNW) 05:44:41 436.925 FM
STRAND 1 19 Apr 06:29:03 06:33:59 51° 74° (ENE) 06:38:56 ?
AO-7 19 Apr 06:49:12 06:55:58 29° 297° (WNW) 07:02:46 29.400 - 29.500 MHz
Hamsat 19 Apr 07:07:10 07:11:31 80° 283° (WNW) 07:15:53 145.90 MHz
MaSat-1 19 Apr 07:12:53 07:15:45 30° 68° (ENE) 07:19:05 437.345 MHz
RS-15 19 Apr 07:14:23 07:25:52 77° 298° (WNW) 07:36:56 29.354 - 29.394 USB, Beacon 29.352 USB
SO-67 19 Apr 07:14:34 07:16:41 15° 95° (E) 07:18:47 435.3500 MHz FM
JAS-2 19 Apr 07:31:29 07:36:50 48° 101° (E) 07:42:46 435.800 - 435.900 CW/SSB, 435.910 FM
PANSAT 19 Apr 07:34:55 07:37:52 21° 158° (SSE) 07:40:48 not established
STRAND 1 19 Apr 08:10:53 08:13:22 14° 266° (W) 08:15:51 ?
SO-67 19 Apr 08:47:08 08:49:44 20° 287° (WNW) 08:52:19 435.3500 MHz FM
MaSat-1 19 Apr 08:53:55 08:54:04 10° 252° (WSW) 08:54:12 437.345 MHz
PANSAT 19 Apr 09:14:00 09:17:46 51° 170° (S) 09:21:32 not established
JAS-2 19 Apr 09:18:05 09:21:38 18° 291° (WNW) 09:25:23 435.800 - 435.900 CW/SSB, 435.910 FM
PCSat 19 Apr 09:28:32 09:32:41 22° 57° (ENE) 09:36:49 145.825 MHz
RS-15 19 Apr 09:32:58 09:40:10 19° 320° (NW) 09:47:18 29.354 - 29.394 USB, Beacon 29.352 USB
HO-68 19 Apr 09:41:18 09:48:20 56° 102° (ESE) 09:55:20 435.675 MHz FM
Saudisat 1A 19 Apr 09:52:18 09:55:12 17° 109° (ESE) 09:58:06 436.775 MHz
Oscar 11 19 Apr 10:17:38 10:21:53 50° 100° (E) 10:26:07 145.825 FM, Beacon 2401.500 USB
Sapphire 19 Apr 10:25:56 10:31:20 70° 65° (ENE) 10:36:42 437.095 MHz 1200 baud AX-25 AFSK
PANSAT 19 Apr 10:54:02 10:57:52 66° 183° (S) 11:01:42 not established
KITSAT 1 19 Apr 10:59:28 11:04:43 18° 48° (NE) 11:09:56 435.175 FM
PCSat 19 Apr 11:11:10 11:16:10 39° 251° (WSW) 11:21:09 145.825 MHz
HO-68 19 Apr 11:30:11 11:35:30 23° 296° (WNW) 11:40:49 435.675 MHz FM
Saudisat 1A 19 Apr 11:30:25 11:34:30 35° 302° (WNW) 11:38:36 436.775 MHz
FUNcube-1 19 Apr 11:43:10 11:47:17 49° 285° (WNW) 11:51:30 145.950 - 145.970 MHz USB
Oscar 11 19 Apr 11:56:40 11:57:35 11° 293° (WNW) 11:58:30 145.825 FM, Beacon 2401.500 USB
Sapphire 19 Apr 12:12:55 12:14:04 11° 257° (WSW) 12:15:14 437.095 MHz 1200 baud AX-25 AFSK
PANSAT 19 Apr 12:34:18 12:37:55 38° 195° (SSW) 12:41:32 not established
KITSAT 1 19 Apr 12:52:56 13:01:03 86° 246° (WSW) 13:09:06 435.175 FM
AO-27 19 Apr 12:57:45 12:59:47 12° 65° (ENE) 13:01:49 436.795 MHz FM
ITAMSAT 1 19 Apr 13:07:26 13:10:25 16° 67° (ENE) 13:13:25 435.822 SSB
Oscar 19 19 Apr 13:10:38 13:15:13 34° 72° (ENE) 13:19:49 437.125 CW, 437.150 USB
AO-Echo 19 Apr 13:15:28 13:18:19 15° 67° (ENE) 13:21:09 ?
Oscar 16 19 Apr 13:18:35 13:23:26 45° 73° (ENE) 13:28:19 437.025 USB, Beacon 2401.1428
Uribyol 2 19 Apr 13:53:33 13:58:32 51° 74° (ENE) 14:03:32 436.500 FM
SO-50 19 Apr 14:09:18 14:11:27 13° 108° (ESE) 14:13:36 436.795 FM
RS-15 19 Apr 14:13:06 14:19:38 17° 38° (NE) 14:26:11 29.354 - 29.394 USB, Beacon 29.352 USB
PANSAT 19 Apr 14:15:49 14:17:43 13° 205° (SSW) 14:19:36 not established
JAS-1B 19 Apr 14:20:26 14:24:00 14° 65° (ENE) 14:27:21 435.800 - 435.900 CW/SSB
Gurwin Techsat 1B 19 Apr 14:26:26 14:30:57 29° 71° (ENE) 14:35:29 435.225 FM
OPAL 19 Apr 14:30:06 14:33:20 17° 97° (E) 14:36:34 ?
AO-27 19 Apr 14:33:35 14:38:43 62° 259° (WSW) 14:43:52 436.795 MHz FM
ITAMSAT 1 19 Apr 14:44:28 14:49:28 48° 260° (W) 14:54:28 435.822 SSB
ISS 19 Apr 14:44:40 14:47:59 79° 314° (NW) 14:51:20 145.800 FM
Oscar 19 19 Apr 14:50:45 14:54:33 21° 264° (W) 14:58:23 437.125 CW, 437.150 USB
AO-Echo 19 Apr 14:51:29 14:56:37 52° 260° (W) 15:01:41 ?
KITSAT 1 19 Apr 14:52:38 14:55:17 12° 260° (W) 14:57:56 435.175 FM
Oscar 10/S400 19 Apr 14:58:36 15:53:21 14° 277° (W) 17:11:32 145.825 - 145.975 CW/USB, Beacon 145.810 USB
Oscar 16 19 Apr 14:59:56 15:02:56 16° 266° (W) 15:05:56 437.025 USB, Beacon 2401.1428
Uosat F 19 Apr 15:11:45 15:15:15 19° 68° (ENE) 15:18:43 435.120 FM
TMSAT-1 19 Apr 15:13:51 15:19:03 63° 75° (ENE) 15:24:16 436.925 FM
Uribyol 2 19 Apr 15:35:42 15:38:13 14° 266° (W) 15:40:44 436.500 FM
SO-50 19 Apr 15:47:20 15:51:35 43° 301° (WNW) 15:55:52 436.795 FM
AO-7 19 Apr 15:48:27 15:56:05 43° 66° (ENE) 16:03:43 29.400 - 29.500 MHz
JAS-1B 19 Apr 16:05:21 16:14:01 89° 256° (WSW) 16:21:13 435.800 - 435.900 CW/SSB
Gurwin Techsat 1B 19 Apr 16:06:27 16:10:48 26° 263° (W) 16:15:12 435.225 FM
OPAL 19 Apr 16:07:23 16:12:20 45° 289° (WNW) 16:17:16 ?
RS-15 19 Apr 16:23:14 16:34:13 71° 61° (ENE) 16:45:32 29.354 - 29.394 USB, Beacon 29.352 USB
UOSAT-12 19 Apr 16:30:49 16:34:14 22° 110° (ESE) 16:37:43 437.025 FM, 437.400 FM
Uosat F 19 Apr 16:49:05 16:53:43 37° 261° (W) 16:58:21 435.120 FM
TMSAT-1 19 Apr 16:57:37 16:59:16 11° 267° (W) 17:00:55 436.925 FM
AO-7 19 Apr 17:41:33 17:48:48 34° 260° (W) 17:56:07 29.400 - 29.500 MHz
Hamsat 19 Apr 17:55:19 17:59:05 33° 74° (ENE) 18:02:53 145.90 MHz
JAS-1B 19 Apr 18:01:39 18:04:42 12° 265° (W) 18:07:37 435.800 - 435.900 CW/SSB
UOSAT-12 19 Apr 18:10:13 18:14:10 29° 304° (WNW) 18:18:12 437.025 FM, 437.400 FM
RS-15 19 Apr 18:37:24 18:45:33 25° 256° (WSW) 18:53:58 29.354 - 29.394 USB, Beacon 29.352 USB
STRAND 1 19 Apr 18:45:58 18:50:17 28° 98° (E) 18:54:36 ?
SO-67 19 Apr 19:14:26 19:17:48 49° 76° (ENE) 19:21:11 435.3500 MHz FM
JAS-2 19 Apr 19:22:32 19:28:41 85° 257° (WSW) 19:34:11 435.800 - 435.900 CW/SSB, 435.910 FM
Hamsat 19 Apr 19:32:58 19:35:07 14° 266° (W) 19:37:17 145.90 MHz
Saudisat 1A 19 Apr 20:02:32 20:06:34 35° 58° (ENE) 20:10:33 436.775 MHz
HO-68 19 Apr 20:05:07 20:10:26 23° 64° (ENE) 20:15:45 435.675 MHz FM
STRAND 1 19 Apr 20:25:11 20:29:19 26° 290° (WNW) 20:33:27 ?
Oscar 11 19 Apr 21:08:08 21:11:14 20° 71° (ENE) 21:14:20 145.825 FM, Beacon 2401.500 USB
MaSat-1 19 Apr 21:10:53 21:14:08 71° 111° (ESE) 21:16:55 437.345 MHz
AO-40 19 Apr 21:14:09 21:16:25 12° 186° (S) 21:18:33 Beacon 2401.320
Saudisat 1A 19 Apr 21:43:08 21:45:50 16° 251° (WSW) 21:48:32 436.775 MHz
HO-68 19 Apr 21:50:41 21:57:36 54° 258° (WSW) 22:04:34 435.675 MHz FM
FUNcube-1 19 Apr 22:34:03 22:38:14 63° 76° (ENE) 22:42:22 145.950 - 145.970 MHz USB
Oscar 11 19 Apr 22:43:39 22:47:13 25° 263° (W) 22:50:49 145.825 FM, Beacon 2401.500 USB
ISS 19 Apr 22:54:34 22:57:56 86° 227° (SW) 23:01:16 145.800 FM
Sapphire 19 Apr 23:20:19 23:24:13 21° 106° (ESE) 23:28:07 437.095 MHz 1200 baud AX-25 AFSK
